Weather History for Estherville, IA

Change the Weather History Date:

Tuesday, April 15, 2014

  Actual Average Record
Temperature  
Mean Temperature 26 °F 47 °F  
Max Temperature 41 °F 58 °F 91 °F (2002)
Min Temperature 14 °F 35 °F 14 °F (2014)
Degree Days  
Heating Degree Days 38 18  
Month to date heating degree days 321  
Since 1 July heating degree days 7236  
Cooling Degree Days 0 0  
Month to date cooling degree days 0  
Year to date cooling degree days 0  
Moisture  
Dew Point 16 °F    
Average Humidity 66    
Maximum Humidity 92    
Minimum Humidity 35    
Precipitation  
Precipitation 0.00 in 0.10 in 1.11 in (1973)
Month to date precipitation 1.43  
Sea Level Pressure  
Sea Level Pressure 30.14 in    
Wind  
Wind Speed 10 mph (NW)    
Max Wind Speed 20 mph    
Max Gust Speed 18 mph    
Visibility 10 miles    
Events      
T = Trace of Precipitation, MM = Missing Value Source: NWS Daily Summary

Daily Weather History Graph

Daily Weather History Graph

Search for Another Location

Airport:

Trip Planner

Search our weather history database for the weather conditions in past years. The results will help you decide how hot, cold, wet, or windy it might be!

Date:

Astronomy

Apr. 15, 2014 Rise Set
Actual Time 6:36 AM CDT 8:02 PM CDT
Civil Twilight 6:06 AM CDT 8:31 PM CDT
Nautical Twilight 5:31 AM CDT 9:07 PM CDT
Astronomical Twilight 4:52 AM CDT 9:46 PM CDT
Moon 8:45 PM CDT (4/15) 6:44 AM CDT (4/15)
Length of Visible Light 14h 25m
Length of Day
13h 25m
Full, 100% of the Moon is Illuminated
Apr 15
Full
Apr 22
Last Quarter
Apr 29
New
May 6
First Quarter
May 14
Full

Hourly Weather History & Observations

Time (CDT) Temp. Windchill Dew Point Humidity Pressure Visibility Wind Dir Wind Speed Gust Speed Precip Events Conditions
12:52 AM 23.0 °F 12.4 °F 19.0 °F 85% 30.19 in 10.0 mi NNW 10.4 mph - N/A   Clear
1:52 AM 21.9 °F 11.7 °F 17.1 °F 82% 30.20 in 10.0 mi NNW 9.2 mph - N/A   Clear
2:52 AM 19.9 °F 8.6 °F 15.1 °F 81% 30.20 in 10.0 mi NNW 10.4 mph - N/A   Clear
3:52 AM 19.0 °F 9.0 °F 14.0 °F 81% 30.20 in 10.0 mi NNW 8.1 mph - N/A   Clear
4:52 AM 17.1 °F 7.6 °F 12.9 °F 84% 30.20 in 10.0 mi NNW 6.9 mph - N/A   Clear
5:52 AM 14.0 °F 5.1 °F 12.0 °F 92% 30.21 in 10.0 mi WNW 5.8 mph - N/A   Clear
6:52 AM 15.1 °F 5.2 °F 12.0 °F 88% 30.22 in 10.0 mi West 6.9 mph - N/A   Clear
7:52 AM 19.0 °F 8.2 °F 12.9 °F 77% 30.24 in 10.0 mi WNW 9.2 mph - N/A   Clear
8:52 AM 23.0 °F 12.4 °F 12.0 °F 63% 30.23 in 10.0 mi NW 10.4 mph - N/A   Clear
9:52 AM 24.1 °F 14.4 °F 10.9 °F 57% 30.23 in 10.0 mi NW 9.2 mph - N/A   Clear
10:52 AM 28.0 °F 20.8 °F 10.0 °F 47% 30.22 in 10.0 mi NNW 6.9 mph - N/A   Clear
11:52 AM 30.0 °F - 9.0 °F 41% 30.21 in - North - - N/A   Unknown
12:52 PM 32.0 °F 28.7 °F 9.0 °F 38% 30.16 in 10.0 mi Variable 3.5 mph - N/A   Unknown
1:52 PM 34.0 °F 28.0 °F 9.0 °F 35% 30.14 in 10.0 mi West 6.9 mph - N/A   Clear
4:52 PM 39.0 °F 31.0 °F 18.0 °F 43% 30.05 in 10.0 mi South 13.8 mph 18.4 mph N/A   Overcast
5:52 PM 39.0 °F 30.3 °F 19.9 °F 46% 30.04 in 10.0 mi SSE 16.1 mph - N/A   Mostly Cloudy
6:52 PM 39.0 °F 29.6 °F 23.0 °F 53% 30.03 in 10.0 mi SSE 18.4 mph - N/A   Mostly Cloudy
8:52 PM 35.1 °F 26.4 °F 26.1 °F 70% 30.00 in 10.0 mi ESE 12.7 mph - N/A   Mostly Cloudy
9:52 PM 33.1 °F 21.9 °F 25.0 °F 72% 30.00 in 10.0 mi ESE 18.4 mph - N/A   Clear
10:52 PM 33.1 °F 21.5 °F 25.0 °F 72% 29.97 in 10.0 mi ESE 19.6 mph - N/A   Clear
11:52 PM 30.9 °F 19.4 °F 24.1 °F 76% 29.96 in 10.0 mi ESE 17.3 mph - N/A   Clear